Home   Weather   Søgne   Past weeks

Flag for Norway Past Weather in Søgne, Norway — Yesterday and Last 2 Weeks

Now
40 °F

Quite cool.


Feels Like: 36 °F
Forecast: 36 / 43 °F
Wind: 7 mph from West

Location: Oksoy Fyr

Current Time: Jan 22, 2017 at 9:30:16 pm

Latest Report: Jan 22, 2017 at 8:00 pm


Visibility: N/A

Pressure: 30.22 "Hg

Humidity: 87%

Dew Point: 37 °F

Location of SøgneLocation

Past Weather in Søgne — Graph

°F

Søgne Temperature Yesterday

Maximum temperature yesterday: 44 °F (at 3:00 pm)
Minimum temperature yesterday: 34 °F (at 11:00 pm)
Average temperature yesterday: 39 °F

High & Low Weather Summary for the Past Weeks

 TemperatureHumidityPressure
High50 °F (Jan 20, 1:00 pm)98% (Jan 18, 1:00 pm)30.50 "Hg (Jan 18, 1:00 pm)
Low22 °F (Jan 16, 7:00 am)57% (Jan 15, 1:00 pm)28.64 "Hg (Jan 11, 1:00 pm)
Average38 °F84%29.96 "Hg
* Reported Jan 7 8:00 pm — Jan 22 8:00 pm, Søgne, Weather by CustomWeather, © 2017

Note: Actual official high and low records may vary slightly from our data, if they occured in-between our weather recording intervals... More about our weather records

Advertising

Søgne Weather History for the Previous 24 Hours

Scroll right to see more
 ConditionsComfort  
Time TempWeatherWind HumidityBarometerVisibility
8:00 pm
Sun, Jan 22
40 °FQuite cool.7 mph87%30.22 "HgN/A
7:00 pm41 °FQuite cool.7 mph90%30.22 "HgN/A
6:00 pm41 °FQuite cool.6 mph89%30.22 "HgN/A
5:00 pm41 °FQuite cool.6 mph86%30.23 "HgN/A
4:00 pm41 °FQuite cool.7 mph86%30.23 "HgN/A
3:00 pm42 °FQuite cool.6 mph80%30.24 "HgN/A
2:00 pm43 °FQuite cool.7 mph80%30.25 "HgN/A
1:00 pm41 °FQuite cool.9 mph85%30.27 "HgN/A
12:00 pm41 °FQuite cool.8 mph86%30.29 "HgN/A
11:00 am40 °FQuite cool.7 mph91%30.30 "HgN/A
10:00 am41 °FQuite cool.8 mph83%30.30 "HgN/A
9:00 am41 °FQuite cool.7 mph85%30.30 "HgN/A
8:00 am41 °FQuite cool.7 mph87%30.30 "HgN/A
7:00 am40 °FQuite cool.6 mph86%30.30 "HgN/A
6:00 am40 °FQuite cool.6 mph88%30.31 "HgN/A
5:00 am39 °FChilly.6 mph90%30.31 "HgN/A
4:00 am37 °FChilly.2 mph93%30.33 "HgN/A
3:00 am36 °FChilly.5 mph94%30.33 "HgN/A
2:00 am33 °FChilly.1 mph94%30.34 "HgN/A
1:00 am33 °FChilly.2 mph95%30.35 "HgN/A
12:00 am33 °FChilly.2 mph93%30.36 "HgN/A
11:00 pm
Sat, Jan 21
34 °FChilly.2 mph94%30.37 "HgN/A
10:00 pm35 °FChilly.5 mph94%30.36 "HgN/A
9:00 pm35 °FChilly.5 mph95%30.36 "HgN/A
Weather by CustomWeather, © 2017

See weather overviewHow to use our weather pages